This is the latest recevied weather packets stored in our database for station/object N3LF. If no packets are shown the sender has not sent any weather packets the latest 10 day(s).
| Time | Temp. | Humidity | Pressure | Rain* | Wind** | Luminosity | Snow |
|---|---|---|---|---|---|---|---|
| 1777825746 | 17.78° C | 40% | 1023.9 hPa | 0 mm | - | 701 W/m² | - |
| 1777825444 | 17.78° C | 40% | 1023.9 hPa | 0 mm | - | 696 W/m² | - |
| 1777825140 | 17.78° C | 38% | 1024 hPa | 0 mm | - | 691 W/m² | - |
| 1777824836 | 16.67° C | 42% | 1024.1 hPa | 0 mm | - | 684 W/m² | - |
| 1777824533 | 16.67° C | 42% | 1024 hPa | 0 mm | - | 677 W/m² | - |
| 1777824229 | 17.22° C | 43% | 1024.3 hPa | 0 mm | - | 667 W/m² | - |
| 1777823925 | 17.78° C | 42% | 1024.3 hPa | 0 mm | - | 662 W/m² | - |
| 1777823623 | 17.22° C | 45% | 1024.3 hPa | 0 mm | - | 653 W/m² | - |
| 1777823320 | 16.67° C | 44% | 1024.4 hPa | 0 mm | - | 645 W/m² | - |
| 1777823017 | 16.67° C | 47% | 1024.3 hPa | 0 mm | - | 637 W/m² | - |
| 1777822715 | 16.67° C | 48% | 1024.4 hPa | 0 mm | - | 628 W/m² | - |
| 1777822413 | 17.22° C | 43% | 1024.5 hPa | 0 mm | - | 616 W/m² | - |
| 1777822110 | 16.11° C | 45% | 1024.3 hPa | 0 mm | - | 609 W/m² | - |
| 1777821808 | 16.11° C | 48% | 1024.6 hPa | 0 mm | - | 599 W/m² | - |
| 1777821505 | 16.11° C | 47% | 1024.3 hPa | 0 mm | - | 587 W/m² | - |
| 1777821203 | 16.11° C | 46% | 1024.3 hPa | 0 mm | - | 577 W/m² | - |
| 1777820899 | 16.67° C | 51% | 1024.4 hPa | 0 mm | - | 567 W/m² | - |
| 1777820595 | 16.67° C | 52% | 1024.5 hPa | 0 mm | - | 556 W/m² | - |
| 1777820292 | 15.56° C | 54% | 1024.5 hPa | 0 mm | - | 543 W/m² | - |
| 1777819990 | 15.56° C | 55% | 1024.4 hPa | 0 mm | - | 532 W/m² | - |
| 1777819686 | 15.56° C | 61% | 1024.4 hPa | 0 mm | - | 520 W/m² | - |
| 1777819386 | 15° C | 66% | 1024.5 hPa | 0 mm | - | 508 W/m² | - |
| 1777819082 | 14.44° C | 67% | 1024.5 hPa | 0 mm | - | 496 W/m² | - |
| 1777818778 | 13.89° C | 72% | 1024.6 hPa | 0 mm | - | 484 W/m² | - |
| 1777818474 | 13.89° C | 71% | 1024.7 hPa | 0 mm | - | 470 W/m² | - |
* Rain latest hour (hover to see other rain measurements)
** Current wind speed in m/s (hover to see current wind gust speed)